Hourly Data Report for September 30, 2017

All times are specified in Local Standard Time (LST). Add 1 hour to adjust for Daylight Saving Time where and when it is observed.

GRISE FIORD CLIMATE
NUNAVUT

76°25'22.040" N
82°54'08.020" W
44.50 m
2402351
71971
NGC

Download Data

Hourly Data (September 2017)
Hourly Data Report for September 30, 2017
Temp Definition
°C
Dew Point Temp Definition
°C
Rel Hum Definition
%
Wind Dir Definition
10's deg

Wind Spd Definition
km/h
Visibility Definition
km
Stn Press Definition
kPa
Hmdx Definition


Wind Chill Definition


Weather Definition


TIME
00:00 -3.4 -6.5 79 11 6   100.73   -6 LegendNANA
01:00 -3.0 -6.0 80 12 8   100.76   -6 LegendNANA
02:00 -3.0 -6.0 80 12 9   100.79   -7 LegendNANA
03:00 -3.2 -5.9 81 13 8   100.82   -6 LegendNANA
04:00 -2.7 -6.0 78 29 7   100.82   -6 LegendNANA
05:00 -2.9 -6.1 78 16 4   100.82   -4 LegendNANA
06:00 -3.2 -6.1 81 14 3   100.82   -4 LegendNANA
07:00 -3.4 -6.5 80 11 8   100.83   -7 LegendNANA
08:00 -4.6 -7.3 81 13 6   100.82   -7 LegendNANA
09:00 -4.6 -7.2 82 12 14   100.83   -10 LegendNANA
10:00 -4.5 -7.3 81 11 10   100.82   -9 LegendNANA
11:00 -4.1 -8.5 71 13 6   100.79   -7 LegendNANA
12:00 -4.2 -7.3 79 13 9   100.77   -8 LegendNANA
13:00 -3.8 -8.4 70 14 5   100.73   -6 LegendNANA
14:00 -3.3 -8.2 69 20 4   100.72   -5 LegendNANA
15:00 -3.8 -8.3 71 14 7   100.67   -7 LegendNANA
16:00 -4.7 -8.6 74 10 3   100.64   -6 LegendNANA
17:00 -4.9 -8.5 76 36 12   100.59   -10 LegendNANA
18:00 -5.2 -8.9 75 30 24   100.57   -12 LegendNANA
19:00 -6.1 -10.7 70 30 23   100.60   -13 LegendNANA
20:00 -6.3 -11.6 66 28 18   100.58   -13 LegendNANA
21:00 -6.6 -12.0 65 28 18   100.55   -13 LegendNANA
22:00 -6.9 -12.1 66 31 9   100.55   -11 LegendNANA
23:00 -7.3 -12.5 66 30 19   100.56   -14 LegendNANA

Notes on Data Quality.

Legend

  • E = Estimated
  • M = Missing
  • NA = Not Available
  • ‡ = Partner data that is not subject to review by the National Climate Archives
Date modified: